Regional Weather Roundup
Issued by NWS

Home | Current Version | Previous Version | Text Only | Print | Product List | Glossary On
Versions: 1 2 3 4 5 6 7 8 9 10 11 12 13 14 15 16 17 18 19 20 21 22 23 24 25 26 27 28 29 30 31 32 33 34 35 36 37 38 39 40 41 42 43 44 45 46 47 48 49 50
000
ASUS43 KLMK 221202
RWRKY
KENTUCKY REGIONAL WEATHER ROUNDUP
NATIONAL WEATHER SERVICE LOUISVILLE KY
800 AM EDT TUE APR 22 2014

NOTE "FAIR" INDICATES FEW OR NO CLOUDS BELOW 12,000 FEET
WITH NO SIGNIFICANT WEATHER AND/OR OBSTRUCTIONS TO VISIBILITY.

KYZ001>023-026-027-061>063-070>075-221300-
WESTERN AND SOUTH CENTRAL KENTUCKY

CITY           SKY/WX    TMP DP  RH WIND       PRES   REMARKS
PADUCAH        CLOUDY    64  60  87 NW5       29.89R FOG
HENDERSON      MOCLDY    59  55  88 W8        29.87R
OWENSBORO      MOCLDY    59  59 100 W7        29.87R FOG
HOPKINSVILLE   CLOUDY    62  62 100 W6        29.88R
BOWLING GREEN  CLOUDY    63  58  83 W6        29.87R
GLASGOW        NOT AVBL
$$

KYZ024-025-028>034-038-045-046-053-221300-
NORTH CENTRAL KENTUCKY

CITY           SKY/WX    TMP DP  RH WIND       PRES   REMARKS
LOUISVILLE/SDF CLOUDY    63  57  81 W9        29.83R
LOUISVILLE/LOU CLOUDY    65  56  72 SW6       29.84R
FORT KNOX      CLOUDY    60  58  92 W5        29.84R
$$

KYZ035>037-039>044-047>052-055>060-089>105-221300-
NORTHEAST KENTUCKY

CITY           SKY/WX    TMP DP  RH WIND       PRES   REMARKS
LEXINGTON      PTSUNNY   60  57  89 SW6       29.84R
COVINGTON      CLOUDY    61  56  83 W7        29.80S
FRANKFORT      CLOUDY    60  56  86 SW6       29.82R
$$

KYZ054-064>069-076>088-106>120-221300-
SOUTHEAST KENTUCKY

CITY           SKY/WX    TMP DP  RH WIND       PRES   REMARKS
JACKSON        RAIN      58  53  84 VRB7      29.85S
LONDON         CLOUDY    63  51  65 W7        29.86R
SOMERSET       NOT AVBL
MIDDLESBORO    NOT AVBL
MONTICELLO     CLOUDY   127  58  11 SW5       29.89R HAZE    HX 125
$$




USA.gov is the U.S. government's official web portal to all federal, state and local government web resources and services.